Regional Weather Roundup
Issued by NWS Albany, NY

Home | Current Version | Previous Version | Text Only | Print | Product List | Glossary On
Versions: 1 2 3 4 5 6 7 8 9 10 11 12 13 14 15 16 17 18 19 20 21 22 23 24 25 26 27 28 29 30 31 32 33 34 35 36 37 38 39 40 41 42 43 44 45 46 47 48 49 50
000
ASUS41 KALY 290010
RWRALY

NEW YORK STATE HOURLY WEATHER ROUNDUP
NATIONAL WEATHER SERVICE ALBANY NY
800 PM EDT TUE MAR 28 2017

NOTE: "FAIR" INDICATES FEW OR NO CLOUDS BELOW 12,000 FEET WITH NO
SIGNIFICANT WEATHER AND/OR NO OBSTRUCTIONS TO VISIBILITY.

NYZ032-033-038>043-046>054-057>066-NYZ062>081-082-084-290100-
EAST


CITY           SKY/WX    TMP DP  RH WIND       PRES   REMARKS
ALBANY         LGT RAIN  45  43  93 CALM      29.93R FOG
GLENS FALLS    LGT RAIN  43  40  89 NE9       29.94R FOG
POUGHKEEPSIE   LGT RAIN  43  42  97 NE3       29.93R FOG
NEWBURGH       CLOUDY    43  43 100 E8        29.93R FOG
MONTGOMERY     LGT RAIN  45  43  93 N5        29.91R FOG
WHITE PLAINS   LGT RAIN  42  40  92 CALM      29.90R FOG
ISLIP          LGT RAIN  41  41 100 N10       29.89R
NEW YORK CITY  LGT RAIN  42  38  85 NE15      29.91S FOG
CENTRAL PARK   RAIN      41  40  96 NE10      29.94R FOG
$$

NYZ005>009-017-018-044>046-055-056-290100-
CENTRAL


CITY           SKY/WX    TMP DP  RH WIND       PRES   REMARKS
FULTON         CLOUDY    42  38  85 N9        30.04R
SYRACUSE       CLOUDY    41  39  93 NW13      30.02R
ROME           CLOUDY    42  38  85 N10       30.00R
ELMIRA         CLOUDY    44  41  89 NE9       30.00R
BINGHAMTON     CLOUDY    44  43  96 NW8       29.95R FOG
MONTICELLO     CLOUDY    43  43 100 CALM      29.93R VSB 1/4
$$

NYZ026>034-041>043-087-290100-
NORTH


CITY           SKY/WX    TMP DP  RH WIND       PRES   REMARKS
WATERTOWN      CLOUDY    41  38  89 N8        30.06R
FORT DRUM      NOT AVBL
MASSENA        CLOUDY    40  36  86 NW6       30.06R
SARANAC LAKE   CLOUDY    36  36 100 VRB5      29.96R WCI  32
PLATTSBURGH    CLOUDY    37  35  92 NE7       30.03R WCI  32
$$

NYZ001>004-010>016-019>021-085-290100-
WEST


CITY           SKY/WX    TMP DP  RH WIND       PRES   REMARKS
NIAGARA FALLS  CLOUDY    45  36  70 N10       30.08R
BUFFALO        CLOUDY    44  39  82 N8        30.07R
DUNKIRK        CLOUDY    44  39  82 CALM      30.08R
JAMESTOWN      CLOUDY    39  36  87 N9        30.04R WCI  33
WELLSVILLE     CLOUDY    44  41  89 N12       30.02R FOG
ROCHESTER      DRIZZLE   44  42  93 CALM      30.06R
PENN YAN       CLOUDY    42  38  85 NW6       30.04R
$$

             KEY
       WCI = WIND CHILL INDEX
       VSB = VISIBILITY
       HX  = HEAT INDEX
$$



USA.gov is the U.S. government's official web portal to all federal, state and local government web resources and services.